User: anonymous   Login
Location: Claflin County Park
(44.8478°N, 87.5507°W)
Time: 02:32:06
(UTC+00:00)
Language:

Cosmos 2058 Rocket - Orbit

View from above orbital plane
View from above orbital plane
View from above satellite
View from above satellite

Ground track
Ground track

The orbit is defined by the following mean orbital elements,

1 20466U          26040.76380507 +.00000000 +00000-0 +58500-4 0 00001
2 20466  82.5026 293.6215 0020740  35.6089 324.6505 14.83544518    03
Epoch (UTC): 09 February 2026 18:19:52
Eccentricity: 0.0020740
inclination: 82.5026°
perigee height: 604 km
apogee height: 633 km
right ascension of ascending node: 293.6215°
argument of perigee: 35.6089°
revolutions per day: 14.83544518
mean anomaly at epoch: 324.6505°

The dashed part of the orbit path shows where the satellite is in the earth's shadow,  

DLR